When you browse on this site, cookies collect data to enhance your experience and personalize the content and advertising you see.
Visit our Privacy Policy to learn more. By continuing to use the site, you agree to this use of cookies and data.
  • In Austria
  • List of Countries
  • For 7 days
  • Water Temperature
  • Satellite Maps
  • Weather Map
  • News
  • Weather Widgets
  • user-avatar
    Login

    Hourly Weather Uige

    Today, 19 January, Saturday

    Time Temperature Precipitation Wind Pressure Humidity
    00:00 +22°C° 0.6 mm 1 mps 692 mmHg 99%
    01:00 +22°C° 0.6 mm 1 mps 692 mmHg 99%
    02:00 +22°C° 0.4 mm 1 mps 692 mmHg 99%
    03:00 +22°C° 0.4 mm 1 mps 692 mmHg 99%
    04:00 +21°C° 0.4 mm 1 mps 691 mmHg 99%
    05:00 +21°C° 0.1 mm 1 mps 692 mmHg 99%
    06:00 +19°C° 0.1 mm 0 mps 692 mmHg 98%
    07:00 +19°C° 0.1 mm 0 mps 692 mmHg 98%
    08:00 +20°C° 0.1 mm 0 mps 693 mmHg 95%
    09:00 +23°C° 0.1 mm 1 mps 693 mmHg 93%
    10:00 +24°C° 0.1 mm 1 mps 693 mmHg 90%
    11:00 +24°C° 0.1 mm 1 mps 693 mmHg 86%
    12:00 +25°C° 0.1 mm 1 mps 692 mmHg 82%
    13:00 +26°C° 0.1 mm 2 mps 692 mmHg 77%
    14:00 +26°C° 0.1 mm 2 mps 692 mmHg 77%
    15:00 +26°C° 0.1 mm 2 mps 691 mmHg 76%
    16:00 +26°C° 0.1 mm 2 mps 691 mmHg 76%
    17:00 +25°C° 0.3 mm 1 mps 691 mmHg 82%
    18:00 +24°C° 0.3 mm 1 mps 691 mmHg 88%
    19:00 +22°C° 0.3 mm 1 mps 691 mmHg 94%
    20:00 +22°C° 0 mm 1 mps 692 mmHg 95%
    21:00 +22°C° 0 mm 1 mps 692 mmHg 96%
    22:00 +19°C° 0 mm 0 mps 693 mmHg 97%
    23:00 +19°C° 0 mm 0 mps 692 mmHg 97%

    Tomorrow, 20 January, Sunday

    Time Temperature Precipitation Wind Pressure Humidity
    00:00 +19°C° 0 mm 0 mps 692 mmHg 98%
    01:00 +19°C° 0 mm 0 mps 692 mmHg 98%
    02:00 +18°C° 0 mm 0 mps 692 mmHg 98%
    03:00 +18°C° 0 mm 0 mps 691 mmHg 98%
    04:00 +18°C° 0 mm 0 mps 691 mmHg 98%
    05:00 +19°C° 0 mm 0 mps 692 mmHg 97%
    06:00 +19°C° 0 mm 0 mps 692 mmHg 95%
    07:00 +19°C° 0 mm 0 mps 692 mmHg 94%
    08:00 +21°C° 0 mm 0 mps 693 mmHg 85%
    09:00 +25°C° 0 mm 1 mps 693 mmHg 75%
    10:00 +27°C° 0 mm 1 mps 694 mmHg 66%
    11:00 +28°C° 0 mm 1 mps 693 mmHg 61%
    12:00 +29°C° 0 mm 2 mps 693 mmHg 57%
    13:00 +30°C° 0 mm 2 mps 692 mmHg 52%
    14:00 +30°C° 0.3 mm 2 mps 692 mmHg 57%
    15:00 +29°C° 0.3 mm 2 mps 691 mmHg 62%
    16:00 +29°C° 0.3 mm 2 mps 691 mmHg 67%
    17:00 +27°C° 0.4 mm 1 mps 691 mmHg 77%
    18:00 +25°C° 0.4 mm 1 mps 691 mmHg 86%
    19:00 +23°C° 0.4 mm 1 mps 691 mmHg 96%
    20:00 +23°C° 0 mm 1 mps 691 mmHg 96%
    21:00 +20°C° 0 mm 0 mps 692 mmHg 96%
    22:00 +20°C° 0 mm 0 mps 693 mmHg 97%
    23:00 +20°C° 0.1 mm 0 mps 692 mmHg 97%

    Day after tomorrow, 21 January, Monday

    Time Temperature Precipitation Wind Pressure Humidity
    00:00 +19°C° 0.1 mm 0 mps 692 mmHg 98%
    01:00 +19°C° 0.1 mm 0 mps 692 mmHg 98%
    02:00 +19°C° 0 mm 0 mps 692 mmHg 98%
    03:00 +18°C° 0 mm 0 mps 691 mmHg 98%
    04:00 +20°C° 0 mm 1 mps 691 mmHg 98%
    05:00 +20°C° 0 mm 1 mps 691 mmHg 97%
    06:00 +21°C° 0 mm 1 mps 692 mmHg 96%
    07:00 +21°C° 0 mm 1 mps 692 mmHg 95%
    08:00 +24°C° 0 mm 1 mps 693 mmHg 83%
    09:00 +26°C° 0 mm 1 mps 694 mmHg 72%
    10:00 +29°C° 0 mm 1 mps 694 mmHg 60%
    11:00 +30°C° 0.1 mm 1 mps 694 mmHg 57%
    12:00 +31°C° 0.1 mm 2 mps 693 mmHg 54%
    13:00 +31°C° 0.1 mm 2 mps 692 mmHg 51%
    14:00 +31°C° 0.2 mm 2 mps 691 mmHg 55%
    15:00 +30°C° 0.2 mm 2 mps 691 mmHg 59%
    16:00 +30°C° 0.2 mm 2 mps 690 mmHg 64%
    17:00 +28°C° 1 mm 2 mps 690 mmHg 74%
    18:00 +25°C° 1 mm 2 mps 690 mmHg 84%
    19:00 +23°C° 1 mm 1 mps 691 mmHg 94%
    20:00 +22°C° 0.3 mm 1 mps 691 mmHg 95%
    21:00 +22°C° 0.3 mm 1 mps 692 mmHg 96%
    22:00 +22°C° 0.3 mm 1 mps 693 mmHg 97%
    23:00 +21°C° 0 mm 1 mps 692 mmHg 97%

    22 January, Tuesday

    Time Temperature Precipitation Wind Pressure Humidity
    00:00 +21°C° 0 mm 1 mps 692 mmHg 98%
    01:00 +21°C° 0 mm 1 mps 691 mmHg 98%
    02:00 +21°C° 0 mm 1 mps 691 mmHg 99%
    03:00 +21°C° 0 mm 1 mps 691 mmHg 99%
    04:00 +21°C° 0 mm 1 mps 691 mmHg 99%
    05:00 +21°C° 0 mm 1 mps 691 mmHg 98%
    06:00 +21°C° 0 mm 1 mps 692 mmHg 98%
    07:00 +21°C° 0 mm 1 mps 692 mmHg 97%
    08:00 +24°C° 0 mm 1 mps 693 mmHg 84%
    09:00 +26°C° 0 mm 1 mps 693 mmHg 71%
    10:00 +29°C° 0 mm 2 mps 694 mmHg 57%
    11:00 +30°C° 0.1 mm 2 mps 693 mmHg 53%
    12:00 +31°C° 0.1 mm 2 mps 692 mmHg 50%
    13:00 +32°C° 0.1 mm 2 mps 692 mmHg 46%
    14:00 +31°C° 0.1 mm 2 mps 691 mmHg 51%
    15:00 +30°C° 0.1 mm 2 mps 690 mmHg 56%
    16:00 +30°C° 0.1 mm 1 mps 690 mmHg 62%
    17:00 +28°C° 0.2 mm 1 mps 690 mmHg 67%
    18:00 +26°C° 0.2 mm 1 mps 690 mmHg 73%
    19:00 +25°C° 0.2 mm 1 mps 690 mmHg 79%
    20:00 +24°C° 0.2 mm 1 mps 691 mmHg 83%
    21:00 +23°C° 0.2 mm 1 mps 691 mmHg 87%
    22:00 +22°C° 0.2 mm 1 mps 692 mmHg 90%
    23:00 +21°C° 0 mm 1 mps 691 mmHg 93%

    23 January, Wednesday

    Time Temperature Precipitation Wind Pressure Humidity
    00:00 +21°C° 0 mm 1 mps 691 mmHg 95%
    01:00 +20°C° 0 mm 1 mps 691 mmHg 98%
    02:00 +20°C° 0 mm 1 mps 691 mmHg 98%
    03:00 +20°C° 0 mm 1 mps 690 mmHg 98%
    04:00 +20°C° 0 mm 1 mps 690 mmHg 99%
    05:00 +20°C° 0 mm 1 mps 691 mmHg 97%
    06:00 +20°C° 0 mm 1 mps 691 mmHg 96%
    07:00 +21°C° 0 mm 1 mps 692 mmHg 94%
    08:00 +22°C° 0 mm 1 mps 692 mmHg 90%
    09:00 +23°C° 0 mm 1 mps 693 mmHg 86%
    10:00 +24°C° 0 mm 2 mps 693 mmHg 81%
    11:00 +25°C° 0 mm 2 mps 693 mmHg 73%
    12:00 +27°C° 0 mm 2 mps 692 mmHg 65%
    13:00 +28°C° 0 mm 2 mps 692 mmHg 57%
    14:00 +28°C° 0 mm 2 mps 691 mmHg 58%
    15:00 +28°C° 0 mm 2 mps 690 mmHg 58%
    16:00 +28°C° 0 mm 2 mps 690 mmHg 59%
    17:00 +26°C° 0 mm 1 mps 690 mmHg 66%
    18:00 +24°C° 0 mm 1 mps 690 mmHg 74%
    19:00 +23°C° 0 mm 1 mps 690 mmHg 82%
    20:00 +22°C° 0 mm 1 mps 690 mmHg 85%
    21:00 +21°C° 0 mm 1 mps 691 mmHg 87%
    22:00 +19°C° 0 mm 0 mps 691 mmHg 90%
    23:00 +19°C° 0 mm 0 mps 691 mmHg 92%

    24 January, Thursday

    Time Temperature Precipitation Wind Pressure Humidity
    00:00 +20°C° 0 mm 1 mps 690 mmHg 94%
    01:00 +20°C° 0 mm 1 mps 690 mmHg 96%
    02:00 +20°C° 0 mm 1 mps 690 mmHg 97%
    03:00 +19°C° 0 mm 0 mps 690 mmHg 97%
    04:00 +19°C° 0 mm 0 mps 690 mmHg 97%
    05:00 +19°C° 0 mm 0 mps 690 mmHg 97%
    06:00 +22°C° 0 mm 1 mps 691 mmHg 96%
    07:00 +22°C° 0 mm 1 mps 691 mmHg 96%
    08:00 +23°C° 0 mm 1 mps 691 mmHg 92%
    09:00 +24°C° 0 mm 1 mps 691 mmHg 87%
    10:00 +25°C° 0 mm 1 mps 692 mmHg 83%
    11:00 +26°C° 0.2 mm 1 mps 691 mmHg 75%
    12:00 +28°C° 0.2 mm 2 mps 691 mmHg 68%
    13:00 +30°C° 0.2 mm 2 mps 690 mmHg 60%
    14:00 +29°C° 0.4 mm 2 mps 690 mmHg 61%
    15:00 +29°C° 0.4 mm 2 mps 689 mmHg 62%
    16:00 +29°C° 0.4 mm 2 mps 689 mmHg 63%
    17:00 +27°C° 0.3 mm 1 mps 689 mmHg 70%
    18:00 +25°C° 0.3 mm 1 mps 689 mmHg 76%
    19:00 +21°C° 0.3 mm 0 mps 689 mmHg 83%
    20:00 +21°C° 0 mm 0 mps 689 mmHg 85%
    21:00 +20°C° 0 mm 0 mps 690 mmHg 87%
    22:00 +20°C° 0 mm 0 mps 690 mmHg 89%
    23:00 +19°C° 0 mm 0 mps 690 mmHg 91%
    Show more